User: anonymous   Login
Location: Unspecified
(54.1780°N, 4.6260°W)
Time: 23:15:31
(UTC+00:00)
Language:

USA 215 - Orbit

View from above orbital plane
View from above orbital plane
View from above satellite
View from above satellite

Ground track
Ground track

The orbit data is extracted from the following two-line orbital elements,

1 37162U 10046A   25346.73195218 0.00000000  00000-0  00000-0 0    09
2 37162 123.0046  77.7292 0003000 333.5233  26.4767 13.41448632    04
Epoch (UTC): 12 December 2025 17:34:00
Eccentricity: 0.0003000
inclination: 123.0046°
perigee height: 1101 km
apogee height: 1106 km
right ascension of ascending node: 77.7292°
argument of perigee: 333.5233°
revolutions per day: 13.41448632
mean anomaly at epoch: 26.4767°
orbit number at epoch: 0

The dashed part of the orbit path shows where the satellite is in the earth's shadow,  

DLR